When you browse on this site, cookies collect data to enhance your experience and personalize the content and advertising you see.
Visit our Privacy Policy to learn more. By continuing to use the site, you agree to this use of cookies and data.
  • în România
  • Lista ţărilor
  • Pe 7 zile
  • Temperatura apei
  • Hartă satelitară
  • Meteo pe hartă
  • Widget-uri
  • user-avatar
    Intrare

    Meteo pe oră la Malinovaya Varaka

    Astăzi, 22 Iulie, Luni

    Timp Temperatura Precipitaţii Vânt Presiune Umiditate
    00:00 +14°C° 0 mm 1 m/s 759 mmHg 83%
    01:00 +14°C° 0 mm 1 m/s 759 mmHg 85%
    02:00 +13°C° 0 mm 1 m/s 759 mmHg 86%
    03:00 +14°C° 0 mm 1 m/s 759 mmHg 81%
    04:00 +15°C° 0 mm 1 m/s 759 mmHg 77%
    05:00 +16°C° 0 mm 1 m/s 759 mmHg 72%
    06:00 +19°C° 0 mm 1 m/s 759 mmHg 64%
    07:00 +21°C° 0 mm 1 m/s 759 mmHg 55%
    08:00 +22°C° 0 mm 1 m/s 759 mmHg 47%
    09:00 +24°C° 0 mm 1 m/s 759 mmHg 43%
    10:00 +25°C° 0 mm 1 m/s 759 mmHg 40%
    11:00 +26°C° 0 mm 1 m/s 759 mmHg 37%
    12:00 +26°C° 0 mm 1 m/s 758 mmHg 37%
    13:00 +26°C° 0 mm 1 m/s 758 mmHg 36%
    14:00 +26°C° 0 mm 1 m/s 758 mmHg 36%
    15:00 +25°C° 0 mm 1 m/s 758 mmHg 40%
    16:00 +25°C° 0 mm 1 m/s 758 mmHg 43%
    17:00 +24°C° 0 mm 1 m/s 758 mmHg 47%
    18:00 +23°C° 0 mm 1 m/s 758 mmHg 52%
    19:00 +21°C° 0 mm 1 m/s 758 mmHg 57%
    20:00 +19°C° 0 mm 2 m/s 758 mmHg 61%
    21:00 +18°C° 0 mm 2 m/s 758 mmHg 66%
    22:00 +16°C° 0 mm 2 m/s 758 mmHg 70%
    23:00 +15°C° 0 mm 2 m/s 758 mmHg 75%

    Mâine, 23 Iulie, Marţi

    Timp Temperatura Precipitaţii Vânt Presiune Umiditate
    00:00 +14°C° 0 mm 2 m/s 758 mmHg 76%
    01:00 +14°C° 0 mm 2 m/s 759 mmHg 77%
    02:00 +13°C° 0 mm 1 m/s 759 mmHg 78%
    03:00 +14°C° 0 mm 1 m/s 759 mmHg 76%
    04:00 +14°C° 0 mm 1 m/s 758 mmHg 75%
    05:00 +15°C° 0 mm 1 m/s 758 mmHg 73%
    06:00 +16°C° 0 mm 1 m/s 758 mmHg 68%
    07:00 +19°C° 0 mm 1 m/s 758 mmHg 64%
    08:00 +20°C° 0 mm 1 m/s 758 mmHg 59%
    09:00 +21°C° 0 mm 1 m/s 758 mmHg 56%
    10:00 +22°C° 0 mm 1 m/s 758 mmHg 53%
    11:00 +23°C° 0 mm 2 m/s 758 mmHg 49%
    12:00 +23°C° 0 mm 2 m/s 758 mmHg 51%
    13:00 +21°C° 0 mm 2 m/s 758 mmHg 52%
    14:00 +21°C° 0 mm 2 m/s 757 mmHg 53%
    15:00 +20°C° 0 mm 2 m/s 757 mmHg 54%
    16:00 +20°C° 0 mm 2 m/s 757 mmHg 55%
    17:00 +20°C° 0 mm 2 m/s 757 mmHg 56%
    18:00 +19°C° 0 mm 2 m/s 757 mmHg 59%
    19:00 +18°C° 0 mm 2 m/s 757 mmHg 63%
    20:00 +17°C° 0 mm 3 m/s 757 mmHg 67%
    21:00 +16°C° 0 mm 2 m/s 757 mmHg 67%
    22:00 +15°C° 0 mm 2 m/s 757 mmHg 67%
    23:00 +14°C° 0 mm 1 m/s 757 mmHg 67%

    Poimâine, 24 Iulie, Miercuri

    Timp Temperatura Precipitaţii Vânt Presiune Umiditate
    00:00 +14°C° 0 mm 1 m/s 757 mmHg 68%
    01:00 +14°C° 0 mm 1 m/s 757 mmHg 68%
    02:00 +14°C° 0 mm 1 m/s 757 mmHg 68%
    03:00 +14°C° 0 mm 1 m/s 756 mmHg 70%
    04:00 +14°C° 0 mm 1 m/s 756 mmHg 73%
    05:00 +14°C° 0 mm 1 m/s 756 mmHg 75%
    06:00 +15°C° 0 mm 1 m/s 756 mmHg 68%
    07:00 +16°C° 0 mm 2 m/s 756 mmHg 61%
    08:00 +17°C° 0 mm 2 m/s 756 mmHg 54%
    09:00 +17°C° 0 mm 2 m/s 756 mmHg 57%
    10:00 +17°C° 0 mm 2 m/s 756 mmHg 60%
    11:00 +17°C° 0 mm 2 m/s 756 mmHg 63%
    12:00 +17°C° 0 mm 2 m/s 756 mmHg 65%
    13:00 +18°C° 0 mm 3 m/s 756 mmHg 66%
    14:00 +19°C° 0 mm 3 m/s 756 mmHg 67%
    15:00 +19°C° 0 mm 3 m/s 756 mmHg 66%
    16:00 +19°C° 0 mm 3 m/s 756 mmHg 65%
    17:00 +19°C° 0 mm 3 m/s 756 mmHg 64%
    18:00 +18°C° 0 mm 3 m/s 756 mmHg 69%
    19:00 +17°C° 0 mm 3 m/s 756 mmHg 73%
    20:00 +16°C° 0 mm 3 m/s 756 mmHg 78%
    21:00 +14°C° 0 mm 3 m/s 756 mmHg 84%
    22:00 +14°C° 0 mm 2 m/s 756 mmHg 90%
    23:00 +12°C° 0 mm 2 m/s 757 mmHg 96%

    25 Iulie, Joi

    Timp Temperatura Precipitaţii Vânt Presiune Umiditate
    00:00 +12°C° 0 mm 2 m/s 757 mmHg 96%
    01:00 +12°C° 0 mm 2 m/s 757 mmHg 96%
    02:00 +12°C° 0 mm 2 m/s 757 mmHg 97%
    03:00 +13°C° 0 mm 2 m/s 757 mmHg 93%
    04:00 +13°C° 0 mm 2 m/s 757 mmHg 90%
    05:00 +14°C° 0 mm 1 m/s 757 mmHg 86%
    06:00 +16°C° 0 mm 1 m/s 758 mmHg 81%
    07:00 +18°C° 0 mm 1 m/s 758 mmHg 76%
    08:00 +19°C° 0 mm 1 m/s 758 mmHg 71%
    09:00 +19°C° 0 mm 2 m/s 759 mmHg 69%
    10:00 +19°C° 0 mm 2 m/s 759 mmHg 66%
    11:00 +20°C° 0 mm 2 m/s 759 mmHg 64%
    12:00 +20°C° 0 mm 3 m/s 759 mmHg 64%
    13:00 +20°C° 0 mm 3 m/s 759 mmHg 64%
    14:00 +20°C° 0 mm 3 m/s 760 mmHg 64%
    15:00 +19°C° 0 mm 3 m/s 760 mmHg 65%
    16:00 +19°C° 0 mm 2 m/s 760 mmHg 67%
    17:00 +18°C° 0 mm 2 m/s 760 mmHg 68%
    18:00 +18°C° 0 mm 2 m/s 760 mmHg 72%
    19:00 +18°C° 0 mm 1 m/s 761 mmHg 77%
    20:00 +16°C° 0 mm 1 m/s 761 mmHg 81%
    21:00 +15°C° 0 mm 1 m/s 761 mmHg 84%
    22:00 +14°C° 0 mm 1 m/s 762 mmHg 87%
    23:00 +13°C° 0 mm 1 m/s 762 mmHg 91%

    26 Iulie, Vineri

    Timp Temperatura Precipitaţii Vânt Presiune Umiditate
    00:00 +13°C° 0 mm 1 m/s 762 mmHg 91%
    01:00 +12°C° 0 mm 0 m/s 762 mmHg 91%
    02:00 +12°C° 0 mm 0 m/s 762 mmHg 91%
    03:00 +14°C° 0 mm 1 m/s 762 mmHg 89%
    04:00 +14°C° 0 mm 1 m/s 762 mmHg 86%
    05:00 +15°C° 0 mm 1 m/s 762 mmHg 84%
    06:00 +16°C° 0 mm 1 m/s 762 mmHg 78%
    07:00 +18°C° 0 mm 1 m/s 762 mmHg 72%
    08:00 +20°C° 0 mm 1 m/s 761 mmHg 67%
    09:00 +20°C° 0 mm 2 m/s 761 mmHg 63%
    10:00 +21°C° 0 mm 2 m/s 761 mmHg 59%
    11:00 +23°C° 0 mm 2 m/s 760 mmHg 55%
    12:00 +24°C° 0 mm 2 m/s 760 mmHg 53%
    13:00 +25°C° 0 mm 2 m/s 759 mmHg 51%
    14:00 +26°C° 0 mm 3 m/s 758 mmHg 50%
    15:00 +24°C° 0.1 mm 2 m/s 758 mmHg 56%
    16:00 +23°C° 0.1 mm 2 m/s 758 mmHg 63%
    17:00 +22°C° 0.1 mm 1 m/s 757 mmHg 69%
    18:00 +20°C° 1.7 mm 2 m/s 757 mmHg 78%
    19:00 +19°C° 1.7 mm 2 m/s 757 mmHg 87%
    20:00 +18°C° 1.7 mm 2 m/s 757 mmHg 95%
    21:00 +17°C° 0.1 mm 2 m/s 756 mmHg 96%
    22:00 +17°C° 0.1 mm 2 m/s 756 mmHg 96%
    23:00 +17°C° 0.1 mm 2 m/s 756 mmHg 97%

    27 Iulie, Sâmbătă

    Timp Temperatura Precipitaţii Vânt Presiune Umiditate
    00:00 +16°C° 0 mm 2 m/s 756 mmHg 97%
    01:00 +16°C° 0 mm 3 m/s 757 mmHg 97%
    02:00 +14°C° 0 mm 3 m/s 757 mmHg 98%
    03:00 +13°C° 0 mm 3 m/s 757 mmHg 97%
    04:00 +12°C° 0 mm 4 m/s 757 mmHg 96%
    05:00 +11°C° 0 mm 4 m/s 758 mmHg 95%
    06:00 +10°C° 0 mm 4 m/s 759 mmHg 93%
    07:00 +8°C° 0 mm 5 m/s 759 mmHg 91%
    08:00 +7°C° 0 mm 5 m/s 760 mmHg 88%
    09:00 +8°C° 0 mm 4 m/s 761 mmHg 83%
    10:00 +8°C° 0 mm 4 m/s 762 mmHg 77%
    11:00 +10°C° 0 mm 3 m/s 762 mmHg 71%
    12:00 +11°C° 0 mm 3 m/s 762 mmHg 65%
    13:00 +12°C° 0 mm 3 m/s 763 mmHg 60%
    14:00 +13°C° 0 mm 3 m/s 763 mmHg 55%
    15:00 +14°C° 0 mm 2 m/s 763 mmHg 55%
    16:00 +14°C° 0 mm 2 m/s 763 mmHg 55%
    17:00 +14°C° 0 mm 1 m/s 763 mmHg 55%
    18:00 +13°C° 0 mm 1 m/s 763 mmHg 60%
    19:00 +12°C° 0 mm 1 m/s 763 mmHg 64%
    20:00 +11°C° 0 mm 1 m/s 763 mmHg 68%
    21:00 +10°C° 0 mm 1 m/s 763 mmHg 73%
    22:00 +8°C° 0 mm 1 m/s 763 mmHg 77%
    23:00 +7°C° 0 mm 1 m/s 763 mmHg 81%
    Arată mai mult